Location: Brehme
(51.4922°N, 10.3620°E)
Time: 02:10:57
(UTC+00:00)

Daily predictions for brighter satellites

Satellite Brightness Start Highest point End
(mag) Time Altitude Azimuth Time Altitude Azimuth Time Altitude Azimuth
Cosmos 2151 Rocket 3.8 00:00:21 10° NNW 00:04:48 59° W 00:06:04 42° SSW
Cosmos 1766 3.7 00:02:14 10° NNW 00:06:03 46° W 00:06:41 42° WSW
Cosmos 1867 4.4 00:03:47 15° WSW 00:08:12 48° NW 00:13:32 10° NE
MOZ.5/SAFIR/RUBIN 5/SL-8 4.1 00:07:51 26° SE 00:10:22 63° ENE 00:14:58 10° N
COSMOS 2487 3.5 00:12:06 10° NW 00:14:48 30° W 00:14:48 30° W
Helios 1A 2.9 00:16:33 42° S 00:17:54 79° WSW 00:22:05 10° NNW
Cosmos 2227 Rocket 2.6 00:12:16 10° NNW 00:17:54 62° NE 00:23:30 10° SE
USA 276 3.8 00:20:13 23° ESE 00:20:13 23° ESE 00:21:50 10° E
Cosmos 2297 Rocket 2.3 00:14:58 10° NNW 00:20:41 79° ENE 00:25:29 15° SE
Cosmos 1470 2.7 00:22:41 10° NNW 00:26:37 76° W 00:27:46 44° S
Meteor 1-21 4.4 00:25:19 28° S 00:28:25 71° E 00:34:12 10° NNE
Cosmos 2100 Rocket 4.1 00:23:06 10° N 00:29:25 77° E 00:33:57 20° SSE
Cosmos 1726 2.0 00:26:19 10° NNW 00:30:02 78° W 00:30:59 48° S
YAOGAN 11 4.2 00:28:55 39° SSW 00:30:14 56° W 00:34:29 10° NNW
Cosmos 1802 Rocket 4.4 00:25:08 10° N 00:31:15 61° ENE 00:36:20 15° SSE
Cosmos 1674 4.4 00:31:30 17° SE 00:33:28 26° E 00:36:43 10° NNE
BREEZE-M DEB (TANK) 4.3 00:32:59 21° SSE 00:35:08 28° ESE 00:44:27 10° ENE
Meteor 2-20 Rocket 4.5 00:33:02 27° S 00:36:36 80° E 00:42:48 10° NNE
Cosmos 1400 Rocket 3.6 00:35:48 10° NNW 00:39:36 37° W 00:40:29 33° SW
Cosmos 1758 3.3 00:36:28 10° NNW 00:40:35 82° WSW 00:42:14 35° S
UNK 4.0 00:38:05 18° SSE 00:41:23 65° ENE 00:45:56 10° N
Cosmos 1975 Rocket 3.7 00:39:57 24° SSE 00:42:12 47° E 00:46:22 10° NNE
Cosmos 1842 3.8 00:42:19 34° WSW 00:43:30 45° WNW 00:47:16 10° N
Cosmos 1656 4.1 00:41:00 26° S 00:43:50 52° ESE 00:49:12 10° NE
Cosmos 1378 Rocket 3.8 00:43:15 33° SW 00:44:55 54° WNW 00:49:10 10° N
Cosmos 1315 Rocket 2.7 00:41:52 10° NNW 00:45:52 89° NE 00:47:45 31° SSE
Cosmos 2251 Rocket 3.4 00:42:50 10° NNW 00:48:05 74° WSW 00:51:33 22° SSE
COSMOS 2455 3.1 00:45:47 10° NW 00:51:34 49° WSW 00:55:11 22° S
Cosmos 1626 4.1 00:49:57 12° SE 00:52:26 23° E 00:55:24 10° NE
Cosmos 614 Rocket 3.8 00:49:38 10° NNW 00:54:45 82° WSW 00:58:46 17° SSE
Okean 2 3.8 00:53:24 32° SW 00:55:03 52° WNW 00:59:08 10° N
ISS -3.9 00:51:55 10° W 00:55:19 81° S 00:58:41 10° ESE
Cosmos 1140 Rocket 4.2 00:50:47 10° NNW 00:55:55 55° ENE 01:01:03 10° SE
SeaSat 1 3.2 00:53:43 10° NNE 00:58:25 45° NW 01:01:44 18° WSW
Cosmos 1727 Rocket 4.2 00:55:09 25° SSW 00:58:56 63° WNW 01:05:17 10° N
Timation 1 Rocket 4.3 00:54:07 10° NNW 01:00:08 88° ENE 01:06:07 10° SSE
KORONAS-FOTON 4.4 00:59:51 24° SSE 01:01:58 52° E 01:05:48 10° NNE
Okean 1 Rocket 4.1 01:00:36 10° NNW 01:04:28 31° W 01:05:54 25° SW
Cosmos 2219 3.3 00:59:09 10° NW 01:04:47 61° WSW 01:09:19 16° S
SL-16 R/B 2.5 01:00:16 17° S 01:05:20 76° WSW 01:11:38 10° NNW
CZ-4 R/B 4.3 01:01:53 10° N 01:06:35 50° WNW 01:09:13 24° SW
Cosmos 1025 Rocket 3.9 01:04:24 17° SSE 01:07:26 45° E 01:11:37 10° NNE
Cosmos 2263 Rocket 3.7 01:08:08 10° NNW 01:13:23 38° NE 01:18:38 10° ESE
Cosmos 1707 3.2 01:12:57 29° SW 01:14:34 47° WNW 01:18:17 10° N
ADEOS Rocket 4.0 01:08:36 10° SSE 01:16:05 67° ENE 01:23:49 10° NNW
Cosmos 371 Rocket 3.3 01:14:23 25° SSW 01:17:18 85° ESE 01:22:14 10° NNE
ADEOS II 2.8 01:13:34 10° NNE 01:18:40 49° E 01:23:07 13° S
Helios 1B rocket 2.4 01:15:58 10° NNE 01:20:09 87° WNW 01:22:33 24° SSW
Cosmos 1190 Rocket 4.2 01:14:56 10° NNW 01:20:09 72° ENE 01:25:23 10° SSE
USA 215 4.1 01:17:22 19° SSW 01:20:23 27° SW 01:25:46 10° WNW
Cosmos 1932 4.5 01:17:39 21° SW 01:22:07 87° SE 01:28:28 10° NE
Cosmos 332 Rocket 4.1 01:19:00 21° S 01:22:13 62° ESE 01:27:02 10° NNE
ATLAS CENTAUR R/B 3.6 01:19:40 10° WNW 01:22:23 18° NNW 01:25:13 10° NNE
NPP 3.7 01:18:37 10° NNE 01:24:02 85° ESE 01:28:00 19° SSW
Cosmos 1725 Rocket 4.0 01:18:53 10° NNW 01:25:11 80° W 01:31:00 12° S
CZ-2D R/B 2.1 01:19:57 10° NNE 01:25:23 80° WNW 01:29:09 20° SSW
Cosmos 1908 3.2 01:22:11 10° NNW 01:26:03 69° W 01:28:33 21° S
Cosmos 1459 Rocket 4.4 01:23:53 10° NNW 01:29:50 47° W 01:34:06 18° SSW
APEX 3.7 01:26:02 10° NW 01:30:20 67° WSW 01:35:43 10° SSE
AQUA 3.8 01:27:18 10° NNE 01:32:06 85° ESE 01:35:39 18° SSW
Resurs 1-4 Rocket 2.2 01:27:01 10° NNE 01:32:16 69° WNW 01:36:01 19° SSW
Cosmos 1544 Rocket 3.5 01:28:18 10° NNW 01:32:41 72° W 01:36:15 15° S
USA 281 3.8 01:28:44 18° SSW 01:33:06 37° WSW 01:39:10 10° NW
Cosmos 2233 Rocket 4.1 01:28:13 10° N 01:34:28 82° E 01:40:38 10° SSE
Lacrosse 5 2.2 01:29:52 12° WSW 01:34:34 66° NNW 01:39:39 10° ENE
Meteor 1-28 Rocket 3.4 01:34:20 10° SSE 01:38:01 71° ENE 01:41:44 10° N
Cosmos 2016 Rocket 4.2 01:33:20 10° NNW 01:39:26 57° W 01:44:39 14° SSW
Cosmos 1953 2.8 01:35:47 10° NNW 01:39:33 42° W 01:41:51 20° SSW
Lacrosse 4 Rocket 2.1 01:37:27 17° S 01:40:35 49° ESE 01:44:52 10° NE
Cosmos 1697 Rocket 2.8 01:37:11 18° SSW 01:41:29 74° ESE 01:47:06 10° NNE
Cosmos 407 Rocket 3.6 01:37:22 10° NNW 01:42:40 63° WSW 01:47:57 10° S
Cosmos 1455 Rocket 3.7 01:38:42 10° NNW 01:42:42 37° W 01:45:16 19° SSW
Cosmos 676 Rocket 4.3 01:38:42 10° NNW 01:43:58 70° ENE 01:49:14 10° SSE
CZ-3B R/B 3.6 01:25:16 10° WSW 01:44:15 85° SSE 01:48:35 10° ENE
Cosmos 2061 Rocket 4.3 01:42:08 10° NNW 01:48:15 53° W 01:53:55 12° SSW
Landsat 4 3.7 01:45:13 10° NNE 01:48:59 74° WNW 01:51:42 18° SSW
CBERS-1 4.5 01:44:35 10° NNE 01:49:40 59° ESE 01:54:42 10° S
Cosmos 1980 Rocket 2.8 01:48:51 12° S 01:54:02 52° ESE 01:59:32 10° NE
USA 276 2.1 01:52:29 15° WSW 01:54:56 66° S 01:58:06 10° E
Cosmos 1536 Rocket 3.7 01:51:33 12° S 01:55:36 78° E 02:00:03 10° NNE
Cosmos 1624 Rocket 4.4 01:51:07 12° S 01:55:58 62° ESE 02:01:15 10° NNE
GP-B 3.1 01:52:09 10° N 01:56:36 85° W 02:01:02 10° S
Meteor 1-29 3.3 01:58:07 10° N 02:01:26 50° WNW 02:03:52 17° SW
Cosmos 2227 Rocket 3.2 01:56:54 10° NW 02:01:35 27° WSW 02:05:43 12° SSW
Cosmos 2285 Rocket 4.4 01:55:41 10° S 02:01:59 66° ESE 02:08:22 10° NNE
Cosmos 2297 Rocket 3.5 02:00:00 10° NW 02:04:06 21° W 02:07:14 14° SW
Cosmos 1674 3.8 02:06:17 15° SW 02:08:54 30° WNW 02:12:19 10° N
Cosmos 1954 Rocket 4.0 02:05:38 10° NNW 02:10:54 74° WSW 02:16:11 10° SSE
CZ-4C R/B 3.5 02:08:31 10° S 02:12:45 63° WSW 02:16:50 10° NNW
Cosmos 2369 3.8 02:08:56 13° SSW 02:14:12 87° WNW 02:19:59 10° NNE
Cosmos 2278 4.0 02:10:03 10° SSW 02:15:41 66° ESE 02:21:21 10° NE
SL-14 R/B 3.4 02:13:00 12° SSW 02:16:35 64° WNW 02:20:34 10° N
ARGOS Delta rocket 4.4 02:12:31 10° N 02:16:53 44° WNW 02:21:13 11° SW
Cosmos 2082 4.3 02:12:03 10° NW 02:17:16 38° WSW 02:22:28 10° S
Cosmos 405 2.9 02:13:55 10° NNW 02:17:28 87° WSW 02:20:58 10° S
Cosmos 2056 Rocket 3.5 02:12:37 11° SSW 02:17:35 87° ESE 02:22:45 10° NNE
MSX 4.3 02:13:34 10° NNE 02:19:20 62° ESE 02:25:03 10° S
Spot 1 4.5 02:15:29 10° S 02:20:10 60° WSW 02:25:08 10° NNW
Cosmos 304 Rocket 4.2 02:17:54 12° SW 02:22:11 50° WNW 02:26:54 10° NNE
CZ-2C R/B 4.3 02:21:50 10° NNE 02:26:21 30° E 02:30:53 10° SSE
Cosmos 1626 3.1 02:24:28 12° SW 02:27:30 32° WNW 02:30:52 10° N
SL-16 R/B 3.8 02:24:24 10° SSE 02:29:17 31° ESE 02:34:12 10° NE
Cosmos 1371 Rocket 4.1 02:25:13 10° SSW 02:30:25 69° WNW 02:35:38 10° NNE
ISS -2.8 02:28:53 10° W 02:31:52 29° SSW 02:34:50 10° SSE
Aureole 2 Rocket 1.9 02:30:44 10° NW 02:33:20 48° WSW 02:35:56 10° S
IRS-1D 3.9 02:28:31 10° N 02:33:44 55° WNW 02:38:56 10° SW
Cosmos 1850 Rocket 4.4 02:29:17 10° NNW 02:34:40 75° ENE 02:40:00 10° SSE
Cosmos 1300 3.5 02:32:18 10° NNW 02:35:47 34° W 02:39:15 10° SSW
IDEFIX/ARIANE 42P 2.7 02:34:42 10° NNE 02:39:58 72° WNW 02:45:13 10° SSW
Cosmos 1891 Rocket 4.4 02:34:48 10° NNW 02:40:55 78° W 02:46:55 10° S
Cosmos 1741 Rocket 4.1 02:39:49 10° NNW 02:45:05 85° ENE 02:50:19 10° SSE
Cosmos 1025 Rocket 4.5 02:41:44 10° WSW 02:45:16 23° WNW 02:48:50 10° NNW
Cosmos 1346 Rocket 3.6 02:44:57 10° S 02:48:46 52° E 02:52:36 10° NNE
SL-16 R/B 4.2 02:46:25 10° WSW 02:49:59 15° W 02:53:34 10° NW
SL-08 R/B 3.3 02:45:24 10° S 02:50:01 60° WSW 02:54:38 10° NNW
USA 32 4.3 02:46:11 10° N 02:51:29 79° E 02:56:45 10° S
Meteor 2-10 Rocket 3.8 02:46:28 10° NNW 02:52:09 62° W 02:57:37 10° S
